Location: Champignolles
(47.0543°N, 4.5663°E)
Time: 07:41:43
(UTC+00:00)

Cosmos 923 Rocket - Pass Details

Date: 16 April 2021
Orbit: 759 x 785 km, 74.0° (Epoch: 13 May)

Event Time Altitude Azimuth Distance (km) Brightness Sun altitude
Rises 04:05:05 0° 321° (NW) 3,229 7.1 -8.3°
Reaches altitude 10° 04:08:32 10° 298° (WNW) 2,300 6.1 -7.8°
Maximum altitude 04:11:12 14° 266° (W) 2,016 5.6 -7.4°
Drops below altitude 10° 04:13:53 10° 235° (SW) 2,297 5.8 -6.9°
Enters shadow 04:15:59 - 219° (SW) 2,815 6.4 -6.6°
